sat.trackr.live / text

‹ back to catalog

STARLINK-31658

NORAD 59513 · 2024-073C

PAYLOAD ACTIVE UNKNOWN

§ Identity

Operator
Country
US
Launch date
2024-04-17
Launch site
AFETR
Launch vehicle
Mass (kg)
RCS (m²)

Purposes: comms

External: N2YO · Heavens-Above · Gunter

§ Orbital elements

Epoch: 2026-09-21T00:30:46.692864Z

Period
94.27 min
Inclination
43.0020°
Eccentricity
0.0000797
Mean motion
15.27585972 rev/d
Perigee alt
482.5 km
Apogee alt
483.6 km
Semi-major
6,861.2 km
B*
1.5642e-4
RAAN
254.6184°
Arg perigee
311.7722°
Mean anomaly
48.3061°
Rev number
13,650

§ Raw data

STARLINK-316581 59513U 24073C   26264.02137376  .00004046  00000+0  15642-3 0  99922 59513  43.0020 254.6184 0000797 311.7722  48.3061 15.27585972136508

JSON: /api/v1/satellites/59513 · /tle

For live sub-satellite position, see the globe view (requires WebGL).

§ Visibility from observer

Set your observer location to see the next 7 days of passes ≥ 10°. The values pass through the URL so the page stays shareable.

No JS? Fill the form by hand. The geolocation button needs JavaScript.